TimeMST,TemperatureF,Dew PointF,Humidity,Sea Level PressureIn,VisibilityMPH,Wind Direction,Wind SpeedMPH,Gust SpeedMPH,PrecipitationIn,Events,Conditions,WindDirDegrees,DateUTC
1:15 AM,8.6,6.8,92,29.88,10.0,Calm,Calm,-,N/A,,Clear,0,2013-01-10 08:15:00
1:35 AM,8.6,5.0,85,29.87,10.0,WNW,4.6,-,N/A,,Clear,300,2013-01-10 08:35:00
1:55 AM,8.6,6.8,92,29.86,10.0,WNW,3.5,-,N/A,,Clear,290,2013-01-10 08:55:00
2:15 AM,8.6,8.6,100,29.85,10.0,WNW,3.5,-,N/A,,Clear,300,2013-01-10 09:15:00
2:35 AM,8.6,8.6,100,29.85,10.0,West,3.5,-,N/A,,Clear,280,2013-01-10 09:35:00
2:55 AM,10.4,8.6,92,29.83,10.0,Calm,Calm,-,N/A,,Clear,0,2013-01-10 09:55:00
3:15 AM,10.4,8.6,92,29.82,10.0,West,3.5,-,N/A,,Clear,280,2013-01-10 10:15:00
3:35 AM,10.4,8.6,92,29.80,10.0,West,3.5,-,N/A,,Clear,260,2013-01-10 10:35:00
3:55 AM,10.4,10.4,100,29.79,10.0,NW,4.6,-,N/A,,Scattered Clouds,320,2013-01-10 10:55:00
4:15 AM,12.2,10.4,92,29.78,10.0,Calm,Calm,-,N/A,,Mostly Cloudy,0,2013-01-10 11:15:00
4:35 AM,14.0,12.2,93,29.77,10.0,Calm,Calm,-,N/A,,Scattered Clouds,0,2013-01-10 11:35:00
4:55 AM,12.2,10.4,92,29.75,10.0,Calm,Calm,-,N/A,,Clear,0,2013-01-10 11:55:00
5:35 AM,12.2,10.4,92,29.75,10.0,West,4.6,-,N/A,,Scattered Clouds,260,2013-01-10 12:35:00
5:55 AM,12.2,10.4,92,29.73,10.0,Calm,Calm,-,N/A,,Scattered Clouds,0,2013-01-10 12:55:00
6:15 AM,12.2,12.2,100,29.74,10.0,Calm,Calm,-,N/A,,Scattered Clouds,0,2013-01-10 13:15:00
6:35 AM,12.2,12.2,100,29.75,10.0,Calm,Calm,-,N/A,,Overcast,0,2013-01-10 13:35:00
6:55 AM,12.2,12.2,100,29.73,10.0,East,3.5,-,N/A,,Overcast,100,2013-01-10 13:55:00
7:35 AM,15.8,15.8,100,29.71,10.0,ESE,9.2,-,N/A,,Overcast,110,2013-01-10 14:35:00
7:55 AM,17.6,15.8,93,29.70,10.0,East,8.1,-,N/A,,Scattered Clouds,100,2013-01-10 14:55:00
8:15 AM,19.4,15.8,86,29.69,10.0,ESE,4.6,-,N/A,,Clear,110,2013-01-10 15:15:00
8:55 AM,19.4,15.8,86,29.69,10.0,West,3.5,-,N/A,,Mostly Cloudy,270,2013-01-10 15:55:00
9:15 AM,21.2,17.6,86,29.68,10.0,Calm,Calm,-,N/A,,Overcast,0,2013-01-10 16:15:00
9:35 AM,21.2,19.4,93,29.67,10.0,East,3.5,-,N/A,,Overcast,90,2013-01-10 16:35:00
9:55 AM,23.0,19.4,86,29.67,10.0,East,5.8,-,N/A,,Overcast,90,2013-01-10 16:55:00
10:15 AM,26.6,19.4,74,29.67,10.0,SE,4.6,-,N/A,,Overcast,130,2013-01-10 17:15:00
10:35 AM,26.6,19.4,74,29.66,10.0,ESE,3.5,-,N/A,,Overcast,110,2013-01-10 17:35:00
10:55 AM,28.4,19.4,69,29.64,10.0,ESE,3.5,-,N/A,,Overcast,110,2013-01-10 17:55:00
11:15 AM,30.2,21.2,69,29.63,10.0,East,5.8,-,N/A,,Overcast,100,2013-01-10 18:15:00
11:35 AM,30.2,21.2,69,29.61,10.0,ESE,5.8,-,N/A,,Overcast,110,2013-01-10 18:35:00
11:55 AM,32.0,21.2,64,29.60,10.0,SE,8.1,-,N/A,,Overcast,140,2013-01-10 18:55:00
12:15 PM,32.0,19.4,60,29.58,10.0,ESE,10.4,-,N/A,,Overcast,120,2013-01-10 19:15:00
12:35 PM,32.0,21.2,64,29.56,10.0,ESE,12.7,-,N/A,,Overcast,120,2013-01-10 19:35:00
12:55 PM,32.0,21.2,64,29.55,10.0,ESE,12.7,-,N/A,,Overcast,120,2013-01-10 19:55:00
1:15 PM,32.0,21.2,64,29.54,10.0,SE,11.5,-,N/A,,Overcast,130,2013-01-10 20:15:00
1:35 PM,32.0,21.2,64,29.54,10.0,SSE,13.8,-,N/A,,Overcast,150,2013-01-10 20:35:00
1:55 PM,32.0,21.2,64,29.54,10.0,SSE,10.4,-,N/A,,Overcast,160,2013-01-10 20:55:00
2:15 PM,32.0,21.2,64,29.54,10.0,SSE,8.1,-,N/A,,Overcast,150,2013-01-10 21:15:00
2:35 PM,32.0,21.2,64,29.54,10.0,SSE,6.9,-,N/A,,Overcast,160,2013-01-10 21:35:00
2:55 PM,32.0,21.2,64,29.53,7.0,ESE,5.8,-,N/A,,Overcast,120,2013-01-10 21:55:00
3:15 PM,32.0,21.2,64,29.51,10.0,ESE,8.1,-,N/A,,Overcast,110,2013-01-10 22:15:00
3:35 PM,32.0,21.2,64,29.51,10.0,ESE,9.2,-,N/A,,Mostly Cloudy,120,2013-01-10 22:35:00
3:55 PM,30.2,19.4,64,29.49,10.0,East,6.9,-,N/A,,Mostly Cloudy,100,2013-01-10 22:55:00
4:15 PM,30.2,21.2,69,29.49,10.0,ESE,5.8,-,N/A,,Mostly Cloudy,120,2013-01-10 23:15:00
4:35 PM,30.2,21.2,69,29.48,10.0,SE,3.5,-,N/A,,Overcast,140,2013-01-10 23:35:00
4:55 PM,28.4,21.2,74,29.47,10.0,ESE,4.6,-,N/A,,Overcast,110,2013-01-10 23:55:00
5:15 PM,28.4,21.2,74,29.47,10.0,SSE,3.5,-,N/A,,Overcast,160,2013-01-11 00:15:00
5:35 PM,30.2,21.2,69,29.47,10.0,SSW,6.9,-,N/A,,Overcast,210,2013-01-11 00:35:00
5:55 PM,28.4,26.6,93,29.47,0.8,WSW,3.5,-,N/A,Snow,Snow,240,2013-01-11 00:55:00
6:15 PM,26.6,26.6,100,29.46,4.0,Calm,Calm,-,N/A,Snow,Light Snow,0,2013-01-11 01:15:00
6:35 PM,26.6,26.6,100,29.45,1.5,East,5.8,-,N/A,Snow,Light Snow,80,2013-01-11 01:35:00
6:55 PM,26.6,26.6,100,29.45,1.0,East,3.5,-,N/A,Snow,Snow,90,2013-01-11 01:55:00
7:15 PM,26.6,26.6,100,29.43,1.0,East,5.8,-,N/A,Snow,Snow,90,2013-01-11 02:15:00
7:35 PM,26.6,26.6,100,29.43,0.8,East,6.9,-,N/A,Snow,Snow,90,2013-01-11 02:35:00
7:55 PM,26.6,26.6,100,29.42,3.0,East,6.9,-,N/A,Snow,Light Snow,90,2013-01-11 02:55:00
8:15 PM,26.6,23.0,86,29.41,10.0,ESE,13.8,-,N/A,,Overcast,110,2013-01-11 03:15:00
8:35 PM,24.8,23.0,93,29.41,1.0,ESE,12.7,17.3,N/A,Snow,Light Snow,120,2013-01-11 03:35:00
8:55 PM,26.6,21.2,80,29.41,10.0,SE,18.4,24.2,N/A,,Overcast,130,2013-01-11 03:55:00
9:15 PM,26.6,21.2,80,29.41,5.0,SE,12.7,-,N/A,Snow,Light Snow,130,2013-01-11 04:15:00
9:35 PM,23.0,23.0,100,29.41,0.5,ESE,11.5,-,N/A,Snow,Heavy Snow,120,2013-01-11 04:35:00
10:15 PM,23.0,23.0,100,29.39,1.2,ESE,11.5,-,N/A,Snow,Light Snow,110,2013-01-11 05:15:00
10:55 PM,24.8,24.8,100,29.38,1.2,ESE,12.7,-,N/A,Snow,Light Snow,110,2013-01-11 05:55:00
11:15 PM,23.0,23.0,100,29.37,0.8,ESE,12.7,-,N/A,Snow,Light Snow,110,2013-01-11 06:15:00
11:35 PM,23.0,23.0,100,29.37,2.0,ESE,11.5,-,N/A,Snow,Light Snow,120,2013-01-11 06:35:00
11:55 PM,23.0,23.0,100,29.37,1.0,ESE,10.4,-,N/A,Snow,Snow,110,2013-01-11 06:55:00